| time (UTC) | temp F | wind direction | speed knots | gust knots | rain 1hr in | rain 24hr in | rain mn in | humidity % | barometer mb |
| 20260505160408 | 56 | 180 | 1.7 | 2.6 | 0.00 | 0.00 | 0.13 | 89 | 1012.0 |
| 20260505152907 | 55 | 115 | 0.9 | 2.6 | 0.00 | 0.00 | 0.13 | 91 | 1012.0 |
| 20260505152407 | 55 | 135 | 1.7 | 2.6 | 0.00 | 0.00 | 0.13 | 90 | 1012.0 |
| 20260505151908 | 55 | 109 | 1.7 | 3.5 | 0.00 | 0.00 | 0.13 | 90 | 1012.0 |
| 20260505151407 | 55 | 70 | 0.9 | 3.5 | 0.00 | 0.00 | 0.13 | 90 | 1012.0 |
| 20260505150908 | 55 | 174 | 2.6 | 2.6 | 0.00 | 0.00 | 0.13 | 91 | 1012.0 |
| 20260505150407 | 55 | 133 | 0.9 | 3.5 | 0.00 | 0.00 | 0.13 | 91 | 1012.0 |
| 20260505140408 | 54 | 98 | 0.9 | 1.7 | 0.00 | 0.00 | 0.13 | 92 | 1012.0 |
| 20260505124907 | 53 | 125 | 1.7 | 2.6 | 0.00 | 0.00 | 0.13 | 94 | 1011.0 |
| 20260505124409 | 53 | 99 | 1.7 | 2.6 | 0.00 | 0.00 | 0.13 | 94 | 1011.0 |
| 20260505123907 | 53 | 93 | 1.7 | 3.5 | 0.00 | 0.00 | 0.13 | 94 | 1011.0 |
| 20260505123408 | 53 | 92 | 1.7 | 2.6 | 0.00 | 0.00 | 0.13 | 94 | 1012.0 |
| 20260505122907 | 53 | 109 | 0.9 | 1.7 | 0.00 | 0.00 | 0.13 | 94 | 1012.0 |
| 20260505122408 | 53 | 103 | 0.9 | 2.6 | 0.00 | 0.00 | 0.13 | 94 | 1012.0 |
| 20260505121908 | 53 | 105 | 0.9 | 2.6 | 0.00 | 0.00 | 0.13 | 94 | 1012.0 |
| 20260505121407 | 53 | 124 | 0.9 | 2.6 | 0.00 | 0.00 | 0.13 | 94 | 1012.0 |
| 20260505120907 | 53 | 124 | 1.7 | 2.6 | 0.00 | 0.00 | 0.13 | 94 | 1011.0 |
| 20260505120407 | 53 | 88 | 1.7 | 1.7 | 0.00 | 0.00 | 0.13 | 95 | 1011.0 |
| 20260505115908 | 53 | 84 | 0.0 | 1.7 | 0.00 | 0.00 | 0.13 | 95 | 1012.0 |
| 20260505115408 | 53 | 70 | 0.9 | 1.7 | 0.00 | 0.00 | 0.13 | 95 | 1012.0 |
| 20260505114907 | 53 | 18 | 0.9 | 1.7 | 0.00 | 0.00 | 0.13 | 95 | 1011.0 |
| 20260505114407 | 53 | 47 | 0.9 | 2.6 | 0.00 | 0.00 | 0.13 | 95 | 1011.0 |
| 20260505113908 | 53 | 34 | 1.7 | 2.6 | 0.00 | 0.00 | 0.13 | 95 | 1011.0 |
| 20260505113408 | 53 | 64 | 0.9 | 2.6 | 0.00 | 0.00 | 0.13 | 95 | 1011.0 |
| 20260505112907 | 53 | 88 | 1.7 | 2.6 | 0.00 | 0.00 | 0.13 | 95 | 1011.0 |
| 20260505112407 | 53 | 68 | 1.7 | 3.5 | 0.00 | 0.00 | 0.13 | 95 | 1011.0 |
| 20260505111907 | 53 | 40 | 2.6 | 2.6 | 0.00 | 0.00 | 0.13 | 95 | 1011.0 |
| 20260505111409 | 53 | 39 | 1.7 | 2.6 | 0.00 | 0.00 | 0.13 | 95 | 1011.0 |
| 20260505110908 | 53 | 27 | 3.5 | 3.5 | 0.00 | 0.00 | 0.13 | 96 | 1011.0 |
| 20260505110407 | 53 | 17 | 0.9 | 4.3 | 0.00 | 0.00 | 0.13 | 95 | 1012.0 |
| 20260505101907 | 53 | 32 | 1.7 | 2.6 | 0.00 | 0.00 | 0.13 | 95 | 1012.0 |
| 20260505101407 | 53 | 101 | 0.0 | 2.6 | 0.00 | 0.00 | 0.13 | 95 | 1012.0 |
| 20260505100907 | 53 | 38 | 2.6 | 2.6 | 0.00 | 0.00 | 0.13 | 95 | 1012.0 |
| 20260505100408 | 53 | 74 | 1.7 | 2.6 | 0.00 | 0.00 | 0.13 | 94 | 1012.0 |
| 20260505095907 | 53 | 82 | 0.9 | 3.5 | 0.00 | 0.00 | 0.13 | 94 | 1012.0 |
| 20260505095407 | 53 | 47 | 3.5 | 3.5 | 0.00 | 0.00 | 0.13 | 94 | 1012.0 |
| 20260505094907 | 53 | 55 | 1.7 | 4.3 | 0.00 | 0.00 | 0.13 | 94 | 1012.0 |
| 20260505094408 | 53 | 46 | 2.6 | 4.3 | 0.00 | 0.00 | 0.13 | 94 | 1012.0 |
| 20260505093907 | 53 | 53 | 2.6 | 3.5 | 0.00 | 0.00 | 0.13 | 94 | 1012.0 |
| 20260505093407 | 53 | 79 | 1.7 | 3.5 | 0.00 | 0.00 | 0.13 | 94 | 1012.0 |
| 20260505092907 | 53 | 23 | 1.7 | 2.6 | 0.00 | 0.00 | 0.13 | 94 | 1012.0 |
| 20260505092408 | 52 | 58 | 1.7 | 2.6 | 0.00 | 0.00 | 0.13 | 94 | 1012.0 |
| 20260505091907 | 52 | 85 | 1.7 | 4.3 | 0.05 | 0.00 | 0.13 | 94 | 1012.0 |
| 20260505091407 | 53 | 67 | 0.9 | 3.5 | 0.07 | 0.00 | 0.13 | 95 | 1012.0 |
| 20260505090907 | 53 | 99 | 1.7 | 4.3 | 0.05 | 0.00 | 0.12 | 95 | 1012.0 |
| 20260505090408 | 53 | 102 | 2.6 | 3.5 | 0.05 | 0.00 | 0.12 | 95 | 1012.0 |
| 20260505085907 | 53 | 51 | 1.7 | 2.6 | 0.02 | 0.00 | 0.11 | 95 | 1012.0 |
| 20260505085407 | 53 | 73 | 2.6 | 3.5 | 0.00 | 0.00 | 0.11 | 95 | 1012.0 |
| 20260505084907 | 53 | 40 | 0.9 | 3.5 | 0.02 | 0.00 | 0.11 | 95 | 1012.0 |
| 20260505084407 | 53 | 61 | 0.9 | 2.6 | 0.00 | 0.00 | 0.11 | 95 | 1012.0 |
| 20260505083907 | 53 | 93 | 0.0 | 1.7 | 0.00 | 0.00 | 0.11 | 95 | 1012.0 |
| 20260505083407 | 53 | 109 | 0.0 | 1.7 | 0.00 | 0.00 | 0.11 | 95 | 1012.0 |
| 20260505082907 | 53 | 309 | 0.0 | 1.7 | 0.00 | 0.00 | 0.11 | 95 | 1012.0 |
| 20260505082407 | 53 | 61 | 1.7 | 2.6 | 0.00 | 0.00 | 0.11 | 95 | 1012.0 |
| 20260505081907 | 53 | 113 | 1.7 | 2.6 | 0.02 | 0.00 | 0.11 | 95 | 1012.0 |
| 20260505081407 | 53 | 76 | 0.0 | 1.7 | 0.05 | 0.00 | 0.11 | 94 | 1012.0 |
| 20260505080907 | 53 | 96 | 0.9 | 2.6 | 0.07 | 0.00 | 0.10 | 94 | 1012.0 |
| 20260505080407 | 53 | 105 | 0.0 | 2.6 | 0.09 | 0.00 | 0.10 | 94 | 1012.0 |
| 20260505075907 | 53 | 120 | 0.0 | 1.7 | 0.17 | 0.00 | 0.09 | 94 | 1012.0 |
| 20260505075409 | 53 | 46 | 1.7 | 2.6 | 0.19 | 0.00 | 0.08 | 94 | 1012.0 |
| 20260505074908 | 53 | 130 | 0.9 | 2.6 | 0.12 | 0.00 | 0.06 | 94 | 1012.0 |
| 20260505074408 | 53 | 114 | 0.0 | 2.6 | 0.09 | 0.00 | 0.05 | 94 | 1013.0 |
| 20260505073911 | 53 | 9 | 1.7 | 2.6 | 0.12 | 0.00 | 0.04 | 94 | 1013.0 |
| 20260505073407 | 53 | 35 | 1.7 | 2.6 | 0.07 | 0.00 | 0.03 | 94 | 1012.0 |
| 20260505072907 | 53 | 44 | 0.9 | 2.6 | 0.05 | 0.00 | 0.02 | 94 | 1012.0 |
| 20260505072408 | 53 | 47 | 2.6 | 3.5 | 0.02 | 0.00 | 0.02 | 93 | 1012.0 |
| 20260505071908 | 53 | 99 | 0.0 | 2.6 | 0.05 | 0.00 | 0.02 | 93 | 1012.0 |
| 20260505071408 | 53 | 107 | 1.7 | 2.6 | 0.05 | 0.00 | 0.01 | 93 | 1013.0 |
| 20260505070907 | 53 | 346 | 0.0 | 2.6 | 0.05 | 0.00 | 0.01 | 93 | 1013.0 |
| 20260505070407 | 53 | 64 | 0.9 | 2.6 | 0.02 | 0.00 | 0.00 | 93 | 1013.0 |
| 20260505065907 | 53 | 33 | 0.9 | 1.7 | 0.00 | 0.00 | 0.16 | 92 | 1013.0 |
| 20260505065407 | 53 | 278 | 1.7 | 3.5 | 0.02 | 0.00 | 0.16 | 92 | 1013.0 |
| 20260505064907 | 53 | 284 | 0.9 | 2.6 | 0.05 | 0.00 | 0.16 | 92 | 1013.0 |
| 20260505064407 | 53 | 255 | 0.9 | 1.7 | 0.02 | 0.00 | 0.16 | 92 | 1012.0 |
| 20260505063907 | 52 | 293 | 1.7 | 2.6 | 0.00 | 0.00 | 0.15 | 92 | 1012.0 |
| 20260505063407 | 52 | 294 | 0.0 | 1.7 | 0.02 | 0.00 | 0.15 | 92 | 1013.0 |
| 20260505062908 | 52 | 315 | 1.7 | 2.6 | 0.02 | 0.00 | 0.15 | 92 | 1012.0 |
| 20260505062407 | 52 | 311 | 0.9 | 1.7 | 0.02 | 0.00 | 0.15 | 91 | 1012.0 |
| 20260505061909 | 52 | 211 | 0.0 | 1.7 | 0.02 | 0.00 | 0.15 | 91 | 1012.0 |
| 20260505061407 | 52 | 203 | 0.0 | 1.7 | 0.05 | 0.00 | 0.15 | 90 | 1012.0 |
| 20260505060908 | 52 | 143 | 1.7 | 1.7 | 0.07 | 0.00 | 0.15 | 90 | 1012.0 |
| 20260505060407 | 52 | 235 | 1.7 | 3.5 | 0.05 | 0.00 | 0.14 | 90 | 1012.0 |
| 20260505055908 | 52 | 174 | 0.9 | 2.6 | 0.07 | 0.00 | 0.13 | 90 | 1012.0 |
| 20260505055407 | 52 | 151 | 0.9 | 2.6 | 0.09 | 0.00 | 0.13 | 90 | 1012.0 |
| 20260505051907 | 53 | 189 | 1.7 | 2.6 | 0.02 | 0.00 | 0.09 | 89 | 1012.0 |
| 20260505051407 | 53 | 155 | 1.7 | 2.6 | 0.05 | 0.00 | 0.09 | 89 | 1012.0 |
| 20260505050907 | 53 | 179 | 3.5 | 3.5 | 0.05 | 0.00 | 0.09 | 89 | 1012.0 |
| 20260505050408 | 53 | 155 | 1.7 | 2.6 | 0.02 | 0.00 | 0.08 | 90 | 1013.0 |
| 20260505041412 | 55 | 181 | 2.6 | 2.6 | 0.02 | 0.00 | 0.03 | 85 | 1013.0 |
| 20260505040908 | 55 | 198 | 1.7 | 3.5 | 0.02 | 0.00 | 0.02 | 85 | 1013.0 |
| 20260505040407 | 55 | 180 | 0.0 | 4.3 | 0.02 | 0.00 | 0.02 | 85 | 1013.0 |
| 20260505035908 | 55 | 216 | 1.7 | 4.3 | 0.00 | 0.00 | 0.02 | 84 | 1013.0 |
| 20260505035408 | 55 | 83 | 0.9 | 1.7 | 0.02 | 0.00 | 0.02 | 85 | 1012.0 |
| 20260505034907 | 55 | 234 | 0.9 | 3.5 | 0.05 | 0.00 | 0.02 | 83 | 1012.0 |
| 20260505034407 | 55 | 228 | 2.6 | 2.6 | 0.02 | 0.00 | 0.02 | 84 | 1012.0 |
| 20260505033907 | 55 | 206 | 2.6 | 4.3 | 0.02 | 0.00 | 0.01 | 85 | 1012.0 |
| 20260505033407 | 56 | 183 | 1.7 | 3.5 | 0.02 | 0.00 | 0.01 | 85 | 1012.0 |
| 20260505032908 | 56 | 180 | 2.6 | 5.2 | 0.02 | 0.00 | 0.01 | 84 | 1012.0 |
| 20260505032408 | 56 | 160 | 2.6 | 3.5 | 0.02 | 0.00 | 0.01 | 84 | 1012.0 |
| 20260505031907 | 56 | 183 | 3.5 | 4.3 | 0.02 | 0.00 | 0.00 | 83 | 1012.0 |
| 20260505031407 | 56 | 181 | 2.6 | 5.2 | 0.02 | 0.00 | 0.00 | 84 | 1012.0 |
| 20260505030907 | 56 | 271 | 3.5 | 7.8 | 0.00 | 0.00 | 0.00 | 83 | 1012.0 |
| 20260505030407 | 56 | 67 | 0.0 | 2.6 | 0.00 | 0.00 | 0.00 | 83 | 1012.0 |
| 20260505025908 | 57 | 217 | 0.9 | 4.3 | 0.00 | 0.00 | 0.00 | 82 | 1012.0 |
| 20260505025407 | 57 | 180 | 1.7 | 2.6 | 0.00 | 0.00 | 0.00 | 83 | 1011.0 |
| 20260505024908 | 57 | 178 | 2.6 | 3.5 | 0.00 | 0.00 | 0.00 | 82 | 1012.0 |
| 20260505024408 | 57 | 188 | 1.7 | 1.7 | 0.00 | 0.00 | 0.00 | 82 | 1012.0 |
| 20260505023907 | 57 | 189 | 2.6 | 4.3 | 0.00 | 0.00 | 0.00 | 82 | 1012.0 |
| 20260505023407 | 57 | 196 | 1.7 | 2.6 | 0.00 | 0.00 | 0.00 | 81 | 1012.0 |
| 20260505022907 | 57 | 195 | 3.5 | 3.5 | 0.00 | 0.00 | 0.00 | 81 | 1012.0 |
| 20260505022407 | 57 | 197 | 3.5 | 5.2 | 0.00 | 0.00 | 0.00 | 80 | 1012.0 |
| 20260505021907 | 57 | 192 | 3.5 | 4.3 | 0.00 | 0.00 | 0.00 | 79 | 1012.0 |
| 20260505021408 | 57 | 205 | 2.6 | 5.2 | 0.00 | 0.00 | 0.00 | 79 | 1012.0 |
| 20260505020907 | 57 | 182 | 1.7 | 2.6 | 0.00 | 0.00 | 0.00 | 79 | 1012.0 |
| 20260505020407 | 57 | 169 | 0.9 | 4.3 | 0.00 | 0.00 | 0.00 | 80 | 1012.0 |
| 20260505015908 | 57 | 179 | 1.7 | 3.5 | 0.00 | 0.00 | 0.00 | 79 | 1012.0 |
| 20260505015408 | 57 | 200 | 1.7 | 5.2 | 0.00 | 0.00 | 0.00 | 78 | 1012.0 |
| 20260505014910 | 57 | 204 | 2.6 | 5.2 | 0.00 | 0.00 | 0.00 | 78 | 1012.0 |
| 20260505014408 | 58 | 186 | 3.5 | 8.7 | 0.00 | 0.00 | 0.00 | 77 | 1012.0 |
| 20260505013908 | 58 | 219 | 2.6 | 4.3 | 0.00 | 0.00 | 0.00 | 75 | 1012.0 |
| 20260505013407 | 59 | 210 | 4.3 | 4.3 | 0.00 | 0.00 | 0.00 | 73 | 1012.0 |
| 20260505012908 | 59 | 178 | 2.6 | 9.6 | 0.00 | 0.00 | 0.00 | 69 | 1012.0 |
| 20260505012407 | 59 | 199 | 2.6 | 3.5 | 0.00 | 0.00 | 0.00 | 73 | 1012.0 |
| 20260505011909 | 59 | 130 | 0.9 | 3.5 | 0.00 | 0.00 | 0.00 | 79 | 1012.0 |
| 20260505011409 | 59 | 134 | 1.7 | 2.6 | 0.00 | 0.00 | 0.00 | 80 | 1012.0 |
| 20260505010907 | 59 | 127 | 2.6 | 4.3 | 0.00 | 0.00 | 0.00 | 80 | 1012.0 |
| 20260505010407 | 59 | 130 | 0.9 | 3.5 | 0.00 | 0.00 | 0.00 | 80 | 1012.0 |
| 20260505005908 | 59 | 135 | 1.7 | 3.5 | 0.00 | 0.00 | 0.00 | 80 | 1012.0 |
| 20260505005407 | 59 | 136 | 4.3 | 5.2 | 0.00 | 0.00 | 0.00 | 80 | 1012.0 |
| 20260505004907 | 59 | 123 | 5.2 | 5.2 | 0.00 | 0.00 | 0.00 | 80 | 1012.0 |
| 20260505004407 | 59 | 122 | 4.3 | 4.3 | 0.00 | 0.00 | 0.00 | 80 | 1012.0 |
| 20260505003908 | 59 | 148 | 3.5 | 4.3 | 0.00 | 0.00 | 0.00 | 79 | 1012.0 |
| 20260505003408 | 59 | 124 | 4.3 | 4.3 | 0.00 | 0.00 | 0.00 | 79 | 1012.0 |
| 20260505002909 | 59 | 131 | 2.6 | 4.3 | 0.00 | 0.00 | 0.00 | 79 | 1012.0 |
| 20260505002407 | 59 | 114 | 2.6 | 7.0 | 0.00 | 0.00 | 0.00 | 78 | 1012.0 |
| 20260505001910 | 59 | 101 | 1.7 | 4.3 | 0.00 | 0.00 | 0.00 | 79 | 1012.0 |
| 20260505001408 | 59 | 133 | 2.6 | 3.5 | 0.00 | 0.00 | 0.00 | 79 | 1012.0 |
| 20260505000907 | 59 | 126 | 1.7 | 4.3 | 0.00 | 0.00 | 0.00 | 79 | 1012.0 |
| 20260505000407 | 59 | 51 | 2.6 | 5.2 | 0.00 | 0.00 | 0.00 | 78 | 1012.0 |
| 20260504235907 | 59 | 101 | 0.0 | 4.3 | 0.00 | 0.00 | 0.00 | 78 | 1012.0 |
| 20260504235408 | 60 | 114 | 2.6 | 4.3 | 0.00 | 0.00 | 0.00 | 78 | 1012.0 |
| 20260504234907 | 60 | 117 | 3.5 | 4.3 | 0.00 | 0.00 | 0.00 | 78 | 1012.0 |
| 20260504234408 | 60 | 95 | 0.0 | 4.3 | 0.00 | 0.00 | 0.00 | 78 | 1012.0 |
| 20260504233907 | 60 | 119 | 3.5 | 4.3 | 0.00 | 0.00 | 0.00 | 78 | 1012.0 |
| 20260504233407 | 60 | 93 | 2.6 | 4.3 | 0.00 | 0.00 | 0.00 | 77 | 1012.0 |
| 20260504232907 | 60 | 91 | 1.7 | 5.2 | 0.00 | 0.00 | 0.00 | 77 | 1012.0 |
| 20260504232407 | 60 | 86 | 1.7 | 4.3 | 0.00 | 0.00 | 0.00 | 78 | 1012.0 |
| 20260504231907 | 60 | 114 | 3.5 | 5.2 | 0.00 | 0.00 | 0.00 | 78 | 1012.0 |
| 20260504231409 | 60 | 94 | 2.6 | 7.0 | 0.00 | 0.00 | 0.00 | 78 | 1012.0 |
| 20260504230908 | 60 | 109 | 4.3 | 6.1 | 0.00 | 0.00 | 0.00 | 77 | 1012.0 |
| 20260504230408 | 60 | 98 | 1.7 | 4.3 | 0.00 | 0.00 | 0.00 | 78 | 1012.0 |
| 20260504225907 | 60 | 115 | 2.6 | 4.3 | 0.00 | 0.00 | 0.00 | 79 | 1012.0 |
| 20260504225408 | 60 | 94 | 2.6 | 4.3 | 0.00 | 0.00 | 0.00 | 77 | 1012.0 |
| 20260504224907 | 60 | 121 | 2.6 | 4.3 | 0.00 | 0.00 | 0.00 | 78 | 1012.0 |
| 20260504224407 | 60 | 97 | 2.6 | 4.3 | 0.00 | 0.00 | 0.00 | 78 | 1012.0 |
| 20260504223907 | 61 | 92 | 2.6 | 4.3 | 0.00 | 0.00 | 0.00 | 77 | 1012.0 |
| 20260504223407 | 61 | 103 | 3.5 | 4.3 | 0.00 | 0.00 | 0.00 | 77 | 1012.0 |
| 20260504222907 | 61 | 105 | 2.6 | 4.3 | 0.00 | 0.00 | 0.00 | 76 | 1012.0 |
| 20260504222409 | 62 | 114 | 1.7 | 5.2 | 0.00 | 0.00 | 0.00 | 75 | 1012.0 |
| 20260504221908 | 62 | 94 | 3.5 | 6.1 | 0.00 | 0.00 | 0.00 | 73 | 1012.0 |
| 20260504221409 | 63 | 118 | 2.6 | 4.3 | 0.00 | 0.00 | 0.00 | 72 | 1012.0 |
| 20260504220907 | 63 | 87 | 3.5 | 3.5 | 0.00 | 0.00 | 0.00 | 71 | 1012.0 |
| 20260504220409 | 64 | 108 | 1.7 | 4.3 | 0.00 | 0.00 | 0.00 | 70 | 1012.0 |
| 20260504215907 | 64 | 110 | 3.5 | 5.2 | 0.00 | 0.00 | 0.00 | 70 | 1012.0 |
| 20260504215409 | 64 | 108 | 2.6 | 3.5 | 0.00 | 0.00 | 0.00 | 72 | 1012.0 |
| 20260504214909 | 64 | 92 | 3.5 | 3.5 | 0.00 | 0.00 | 0.00 | 73 | 1012.0 |
| 20260504214409 | 64 | 108 | 2.6 | 4.3 | 0.00 | 0.00 | 0.00 | 73 | 1012.0 |
| 20260504213907 | 63 | 115 | 2.6 | 3.5 | 0.00 | 0.00 | 0.00 | 74 | 1012.0 |
| 20260504213407 | 63 | 109 | 3.5 | 4.3 | 0.00 | 0.00 | 0.00 | 72 | 1012.0 |
| 20260504212908 | 63 | 100 | 2.6 | 4.3 | 0.00 | 0.00 | 0.00 | 73 | 1012.0 |
| 20260504212407 | 63 | 70 | 4.3 | 4.3 | 0.00 | 0.00 | 0.00 | 73 | 1012.0 |
| 20260504211908 | 63 | 115 | 2.6 | 4.3 | 0.00 | 0.00 | 0.00 | 73 | 1012.0 |
| 20260504211410 | 63 | 109 | 1.7 | 4.3 | 0.00 | 0.00 | 0.00 | 72 | 1012.0 |
| 20260504210909 | 62 | 66 | 0.9 | 5.2 | 0.00 | 0.00 | 0.00 | 74 | 1012.0 |
| 20260504210407 | 62 | 101 | 3.5 | 4.3 | 0.00 | 0.00 | 0.00 | 74 | 1013.0 |
| 20260504205909 | 63 | 107 | 2.6 | 5.2 | 0.00 | 0.00 | 0.00 | 73 | 1012.0 |
| 20260504205409 | 62 | 88 | 1.7 | 5.2 | 0.00 | 0.00 | 0.00 | 74 | 1013.0 |
| 20260504204909 | 63 | 107 | 2.6 | 5.2 | 0.00 | 0.00 | 0.00 | 72 | 1013.0 |
| 20260504204407 | 63 | 95 | 2.6 | 3.5 | 0.00 | 0.00 | 0.00 | 73 | 1013.0 |
| 20260504203908 | 62 | 104 | 0.0 | 5.2 | 0.00 | 0.00 | 0.00 | 73 | 1012.0 |
| 20260504203407 | 63 | 93 | 2.6 | 5.2 | 0.00 | 0.00 | 0.00 | 72 | 1013.0 |
| 20260504202909 | 63 | 65 | 1.7 | 4.3 | 0.00 | 0.00 | 0.00 | 73 | 1012.0 |
| 20260504202407 | 63 | 88 | 3.5 | 5.2 | 0.00 | 0.00 | 0.00 | 72 | 1012.0 |
| 20260504201909 | 63 | 105 | 1.7 | 5.2 | 0.00 | 0.00 | 0.00 | 72 | 1012.0 |
| 20260504201408 | 63 | 120 | 2.6 | 7.0 | 0.00 | 0.00 | 0.00 | 72 | 1012.0 |
| 20260504200908 | 63 | 108 | 4.3 | 4.3 | 0.00 | 0.00 | 0.00 | 71 | 1012.0 |
| 20260504200409 | 63 | 134 | 2.6 | 8.7 | 0.00 | 0.00 | 0.00 | 70 | 1012.0 |
| 20260504195908 | 64 | 122 | 4.3 | 7.0 | 0.00 | 0.00 | 0.00 | 67 | 1012.0 |
| 20260504195410 | 64 | 118 | 4.3 | 4.3 | 0.00 | 0.00 | 0.00 | 67 | 1012.0 |
| 20260504194909 | 65 | 133 | 6.1 | 7.0 | 0.00 | 0.00 | 0.00 | 63 | 1013.0 |
| 20260504194410 | 66 | 61 | 1.7 | 4.3 | 0.00 | 0.00 | 0.00 | 63 | 1013.0 |
| 20260504193908 | 66 | 98 | 2.6 | 4.3 | 0.00 | 0.00 | 0.00 | 65 | 1013.0 |
| 20260504193409 | 65 | 95 | 3.5 | 4.3 | 0.00 | 0.00 | 0.00 | 66 | 1012.0 |
| 20260504192908 | 65 | 97 | 3.5 | 5.2 | 0.00 | 0.00 | 0.00 | 66 | 1012.0 |
| 20260504192409 | 65 | 120 | 2.6 | 6.1 | 0.00 | 0.00 | 0.00 | 63 | 1012.0 |
| 20260504191910 | 65 | 116 | 2.6 | 5.2 | 0.00 | 0.00 | 0.00 | 64 | 1013.0 |
| 20260504191409 | 65 | 176 | 3.5 | 5.2 | 0.00 | 0.00 | 0.00 | 63 | 1013.0 |
| 20260504190909 | 64 | 113 | 2.6 | 7.0 | 0.00 | 0.00 | 0.00 | 66 | 1012.0 |
| 20260504190409 | 64 | 117 | 3.5 | 6.1 | 0.00 | 0.00 | 0.00 | 64 | 1013.0 |
| 20260504185907 | 65 | 138 | 4.3 | 6.1 | 0.00 | 0.00 | 0.00 | 65 | 1013.0 |
| 20260504185411 | 65 | 124 | 2.6 | 4.3 | 0.00 | 0.00 | 0.00 | 67 | 1013.0 |
| 20260504184908 | 64 | 74 | 0.9 | 4.3 | 0.00 | 0.00 | 0.00 | 65 | 1013.0 |
| 20260504184407 | 64 | 129 | 2.6 | 4.3 | 0.00 | 0.00 | 0.00 | 68 | 1013.0 |
| 20260504183909 | 65 | 124 | 4.3 | 6.1 | 0.00 | 0.00 | 0.00 | 68 | 1013.0 |
| 20260504183409 | 65 | 101 | 1.7 | 4.3 | 0.00 | 0.00 | 0.00 | 68 | 1013.0 |
| 20260504182909 | 66 | 99 | 2.6 | 4.3 | 0.00 | 0.00 | 0.00 | 66 | 1013.0 |
| 20260504182409 | 66 | 129 | 2.6 | 4.3 | 0.00 | 0.00 | 0.00 | 65 | 1013.0 |
| 20260504181908 | 66 | 117 | 3.5 | 4.3 | 0.00 | 0.00 | 0.00 | 65 | 1013.0 |
| 20260504181410 | 65 | 111 | 1.7 | 5.2 | 0.00 | 0.00 | 0.00 | 67 | 1013.0 |
| 20260504180909 | 65 | 89 | 2.6 | 3.5 | 0.00 | 0.00 | 0.00 | 68 | 1012.0 |
| 20260504180408 | 64 | 122 | 2.6 | 3.5 | 0.00 | 0.00 | 0.00 | 69 | 1012.0 |
| 20260504175908 | 65 | 94 | 2.6 | 5.2 | 0.00 | 0.00 | 0.00 | 68 | 1012.0 |
| 20260504175409 | 65 | 97 | 1.7 | 3.5 | 0.00 | 0.00 | 0.00 | 66 | 1012.0 |
| 20260504174909 | 64 | 99 | 2.6 | 3.5 | 0.00 | 0.00 | 0.00 | 67 | 1012.0 |
| 20260504174409 | 64 | 96 | 0.0 | 4.3 | 0.00 | 0.00 | 0.00 | 67 | 1012.0 |
| 20260504173910 | 65 | 74 | 1.7 | 3.5 | 0.00 | 0.00 | 0.00 | 68 | 1012.0 |
| 20260504173410 | 64 | 98 | 1.7 | 2.6 | 0.00 | 0.00 | 0.00 | 68 | 1012.0 |
| 20260504172909 | 64 | 85 | 1.7 | 3.5 | 0.00 | 0.00 | 0.00 | 69 | 1012.0 |
| 20260504172410 | 63 | 130 | 0.0 | 3.5 | 0.00 | 0.00 | 0.00 | 69 | 1012.0 |
| 20260504171910 | 63 | 171 | 1.7 | 5.2 | 0.00 | 0.00 | 0.00 | 70 | 1012.0 |
| 20260504171410 | 62 | 134 | 5.2 | 6.1 | 0.00 | 0.00 | 0.00 | 71 | 1012.0 |
| 20260504170910 | 62 | 94 | 3.5 | 4.3 | 0.00 | 0.00 | 0.00 | 73 | 1012.0 |
| 20260504170409 | 61 | 79 | 2.6 | 3.5 | 0.00 | 0.00 | 0.00 | 74 | 1012.0 |